Home   Weather   Nashville   Past weeks

Flag for USA Past Weather in Nashville, Tennessee, USA — Yesterday and Last 2 Weeks

Now
54 °F

Partly sunny.


Feels Like: 52 °F
Forecast: 27 / 56 °F
Wind: 7 mph from South

Location: Nashville International Airport

Current Time: Feb 26, 2017 at 3:50:10 pm

Latest Report: Feb 26, 2017 at 2:53 pm


Visibility: 10 mi

Pressure: 30.16 "Hg

Humidity: 21%

Dew Point: 15 °F

Location of NashvilleLocation

Past Weather in Nashville — Graph

°F

Nashville Temperature Yesterday

Maximum temperature yesterday: 60 °F (at 12:53 am)
Minimum temperature yesterday: 35 °F (at 10:53 pm)
Average temperature yesterday: 45 °F

High & Low Weather Summary for the Past Weeks

 TemperatureHumidityPressure
High80 °F (Feb 24, 12:53 pm)97% (Feb 19, 7:01 am)30.37 "Hg (Feb 19, 7:01 am)
Low28 °F (Feb 16, 3:53 am)17% (Feb 13, 3:53 pm)29.61 "Hg (Feb 24, 3:53 pm)
Average54 °F61%29.98 "Hg
* Reported Feb 11 1:53 pm — Feb 26 1:53 pm, Nashville, Weather by CustomWeather, © 2017

Note: Actual official high and low records may vary slightly from our data, if they occured in-between our weather recording intervals... More about our weather records

Advertising

Nashville Weather History for the Previous 24 Hours

Scroll right to see more
 ConditionsComfort  
Time TempWeatherWind HumidityBarometerVisibility
1:53 pm
Sun, Feb 26
54 °FPartly sunny.12 mph21%30.16 "Hg10 mi
12:53 pm53 °FScattered clouds.8 mph22%30.20 "Hg10 mi
11:53 am50 °FPassing clouds.9 mph25%30.23 "Hg10 mi
10:53 am45 °FPassing clouds.3 mph33%30.26 "Hg10 mi
9:53 am44 °FPassing clouds.13 mph37%30.27 "Hg10 mi
8:53 am40 °FSunny.7 mph45%30.26 "Hg10 mi
7:53 am35 °FSunny.6 mph78%30.24 "Hg10 mi
6:53 am29 °FSunny.No wind75%30.25 "Hg10 mi
5:53 am28 °FSunny.3 mph78%30.24 "Hg10 mi
4:53 am28 °FClear.3 mph78%30.23 "Hg10 mi
3:53 am30 °FClear.3 mph72%30.20 "Hg10 mi
2:53 am30 °FClear.No wind69%30.19 "Hg10 mi
1:53 am32 °FClear.No wind61%30.17 "Hg10 mi
12:53 am33 °FClear.No wind56%30.17 "Hg10 mi
11:53 pm
Sat, Feb 25
35 °FClear.3 mph52%30.16 "Hg10 mi
10:53 pm35 °FClear.3 mph52%30.16 "Hg10 mi
9:53 pm37 °FClear.5 mph48%30.16 "Hg10 mi
8:53 pm38 °FClear.6 mph46%30.15 "Hg10 mi
7:53 pm39 °FClear.7 mph46%30.13 "Hg10 mi
6:53 pm43 °FClear.10 mph34%30.10 "Hg10 mi
5:53 pm44 °FClear.10 mph32%30.08 "Hg10 mi
4:53 pm47 °FPassing clouds.10 mph28%30.05 "Hg10 mi
3:53 pm48 °FPassing clouds.7 mph28%30.04 "Hg10 mi
Weather by CustomWeather, © 2017

See weather overviewHow to use our weather pages